Location: Willingham
(52.3167°N, 0.0667°E)
Time: 21:15:34
(UTC+00:00)

Landsat 5 - Pass Details

Date: 19 May 2025
Orbit: 510 x 610 km, 98.1° (Epoch: 18 June)

Event Time Altitude Azimuth Distance (km) Brightness Sun altitude
Rises 23:27:43 0° 12° (NNE) 2,807 8.3 -17.4°
Reaches altitude 10° 23:29:52 10° 10° (N) 1,918 7.2 -17.5°
Maximum altitude 23:34:00 67° 289° (WNW) 649 3.7 -17.5°
Enters shadow 23:36:02 29° 214° (SSW) 1,104 4.4 -17.6°
